A/2018 W1

Japanese version
Home page
Updated on December 4, 2018

---------------------------------------------------------------------

* Profile

Discovery Date November 16, 2018
Magnitude 19.8 mag
Discoverer Catalina Sky Survey

* Orbital Elements

Epoch 2019 Apr. 27.0 TT = JDT 2458600.5
T 2019 May 11.85786 TT                                  MPCW
q   1.3591947            (2000.0)            P               Q
n   0.00983032     Peri.  251.29708     +0.10057632     -0.59242266
a  21.5819559      Node   233.60205     +0.67163352     -0.55229266
e   0.9370217      Incl.   83.24326     -0.73402508     -0.58652213
P 100              H   15.7    G   0.15
From 134 observations 2018 Nov. 16-30, mean residual 0".4.

* Magnitudes Graph

        H = 15.5  G = 0.15

---------------------------------------------------------------------

The orbital elements are published on M.P.E.C. 2018-X14.
The magnitudes graphs are made with Comet for Windows.

---------------------------------------------------------------------

Copyright(C) Seiichi Yoshida (comet@aerith.net). All rights reserved.